User: anonymous   Login
Location: Unspecified
(0.0000°N, 0.0000°E)
Time: 06:13:47
(UTC+00:00)
Language:

ITUPSAT 1 - Orbit

View from above orbital plane
View from above orbital plane
View from above satellite
View from above satellite

Ground track
Ground track

The orbit data is extracted from the following two-line orbital elements,

1 35935U 09051E   20191.46535463 +.00000043 +00000-0 +21100-4 0  9994
2 35935 098.6210 016.5185 0009302 074.5016 285.7207 14.55624139572876
Epoch (UTC): 09 July 2020 11:10:06
Eccentricity: 0.0009302
inclination: 98.6210°
perigee height: 701 km
apogee height: 714 km
right ascension of ascending node: 16.5185°
argument of perigee: 74.5016°
revolutions per day: 14.55624139
mean anomaly at epoch: 285.7207°
orbit number at epoch: 57287

The dashed part of the orbit path shows where the satellite is in the earth's shadow,  

DLR